Location: La Fredeussais
(48.1780°N, 1.3980°W)
Time: 07:22:42
(UTC+00:00)

ITUPSAT 1 - Pass Details

Date: 24 October 2021
Orbit: 702 x 712 km, 98.6° (Epoch: 07 December)

Event Time Altitude Azimuth Distance (km) Brightness Sun altitude
Rises 04:57:26 0° 106° (ESE) 3,088 ? -17.5°
Reaches altitude 10° 05:01:00 10° 78° (ENE) 2,174 ? -16.9°
Maximum altitude 05:02:56 12° 54° (NE) 2,013 ? -16.6°
Drops below altitude 10° 05:04:52 10° 30° (NNE) 2,179 ? -16.3°
Sets 05:08:26 0° 2° (N) 3,103 ? -15.7°
